FAOB

Details ICAO FAOB
Name Overberg
Region South Africa
Timezone Africa/Johannesburg (UTC+2.0)
Plans Departing 11
Arriving 20
Stats Elevation 52 ft / 16 m (AMSL)
Location -34.561543° 20.250053°
Runways 2
Magnetic Variation 26.635° W
Sunrise 2018-05-24 05:33:17 UTC / 2018-05-24 07:33:17 Local
Sunset 2018-05-24 15:41:15 UTC / 2018-05-24 17:41:15 Local
Advertisement - Login to hide

Runways

ID Width Length Bearing (true) Bearing (mag) Surface Threshold Offset Overrun Length
10 131 ft / 40 m 6,933 ft / 2,113 m 75.32° 101.96° Asphalt 0 ft / 0 m 950 ft / 290 m
17 151 ft / 46 m 10,230 ft / 3,118 m 145.55° 172.19° Asphalt 0 ft / 0 m 950 ft / 290 m
28 131 ft / 40 m 6,933 ft / 2,113 m 255.30° 281.94° Asphalt 0 ft / 0 m 950 ft / 290 m
35 151 ft / 46 m 10,230 ft / 3,118 m 325.53° 352.17° Asphalt 0 ft / 0 m 950 ft / 290 m

Map

Weather


0- 5 10 15 20 25 30 35+ Temperature / ° C

Clouds and Precipitation
Forecast for 2018-05-24 18:00 UTC. Updated 3 hours ago

Ground ~20,000 ft ~40,000 ft Winds

METAR

FAOB 242000Z AUTO 29003KT //// // ////// 14/11 Q1022

TAF

Not found

Frequencies

Ground 119.80 MHz GND
Approach 119.80 MHz APP
Tower 119.80 MHz TWR
Warning: Do not use this data for real-world aviation or navigation. No guarantee of current accuracy is given.